Wind_Speed
9 9 9 8 7 7 7 6 5 5 4 5 5 5 5 4 4 4 3 3 3 3 2 3 3 4 5 6 5 3 3 3 5 5 6 4 2 3 3 2 1 2 1 1 1 1 1 4 4 4 6 7 9 9 10 13 13 13 11 8 11 12 8
10 10 9 8 8 7 7 5 5 5 5 5 5 5 5 5 5 5 4 4 4 4 4 4 5 5 5 5 5 5 4 4 5 3 3 3 2 2 2 0 1 3 4 4 5 5 4 6 3 2 3 4 6 10 12 12 12 14 15 12 11 12 12
11 10 10 9 8 7 7 6 5 5 5 5 5 5 5 5 5 5 5 5 5 5 5 5 5 5 5 5 5 5 5 5 5 5 4 4 3 2 1 1 1 3 4 4 5 5 5 6 4 3 3 3 4 7 9 11 12 13 14 14 14 14 14
11 11 10 10 9 8 8 7 6 5 5 5 5 5 5 6 6 5 5 5 5 5 5 5 5 5 5 5 5 5 5 5 5 5 5 4 4 3 3 3 2 2 3 2 2 3 4 4 5 4 5 6 6 6 7 9 11 11 11 13 14 14 14
12 12 11 11 11 10 9 8 7 7 6 6 6 5 6 5 5 5 4 4 4 4 4 4 4 5 5 5 5 5 5 6 5 5 5 4 4 4 4 4 3 3 3 3 4 4 5 5 5 5 6 7 7 6 7 8 9 11 12 13 13 12 12
13 13 12 12 11 11 10 9 8 8 7 7 7 6 6 6 5 4 4 4 4 4 4 4 4 4 4 5 5 6 6 6 6 5 5 4 4 4 3 3 3 3 3 3 3 3 3 5 5 5 6 7 7 7 9 9 10 11 11 11 10 10 10
14 14 13 13 12 11 10 10 9 8 8 8 8 8 8 7 5 5 4 4 4 4 4 4 4 4 4 4 5 6 6 6 6 6 5 5 4 4 3 3 3 3 3 3 3 3 3 4 5 5 6 7 7 8 9 8 8 7 7 6 6 7 8
14 14 13 13 13 12 11 11 10 9 9 9 9 9 10 8 7 6 6 5 5 4 4 4 4 3 3 4 4 5 5 5 5 5 5 5 4 4 4 3 3 3 3 3 3 3 3 4 5 6 6 6 6 6 6 7 7 7 6 5 5 5 5
14 14 14 13 13 13 12 12 11 10 9 10 10 11 11 10 8 8 7 6 6 5 5 4 4 4 3 3 3 4 4 4 4 4 4 4 4 4 4 4 3 3 4 4 4 4 4 4 5 6 6 6 6 5 4 5 6 6 6 6 5 4 3
14 13 13 13 13 13 13 12 12 11 10 10 11 13 13 12 10 9 8 8 8 7 6 5 5 5 4 3 3 3 3 3 3 3 3 3 3 3 4 4 4 4 5 5 4 4 4 5 5 5 6 7 7 6 5 5 5 6 8 8 7 7 6
14 13 12 12 12 13 13 13 13 12 12 12 13 14 14 13 13 11 10 9 9 8 8 7 6 6 5 4 4 4 4 3 3 3 3 2 2 2 2 3 3 3 4 4 4 5 5 5 5 5 5 6 6 6 6 6 6 7 9 9 9 9 9
15 14 13 12 11 12 13 13 13 13 14 14 14 15 16 15 15 14 12 11 11 10 9 8 8 7 6 5 5 5 4 4 3 3 2 2 2 1 1 1 1 1 2 4 3 3 4 5 5 6 6 6 6 6 7 7 6 7 9 9 10 11 12
15 15 14 13 12 12 12 12 13 13 14 15 15 17 17 17 16 16 15 13 13 12 11 10 9 8 7 7 6 6 6 5 5 4 3 2 2 1 1 1 1 1 2 4 3 3 4 4 5 6 6 6 6 6 7 8 7 8 11 12 12 13 13
13 14 14 13 14 14 13 13 13 13 14 14 15 17 18 18 18 17 16 16 15 14 13 12 11 10 9 8 7 7 7 6 6 5 5 4 3 2 2 2 2 2 2 4 5 5 5 5 6 6 6 6 7 6 7 8 9 10 12 12 12 13 13
12 12 13 13 13 13 13 12 13 14 15 15 15 17 17 18 18 18 18 17 17 16 15 15 14 12 11 10 9 8 8 8 7 6 5 5 5 4 2 3 3 3 3 5 6 6 6 6 6 7 7 6 7 7 7 9 10 11 12 12 13 14 13
12 12 13 13 14 15 14 13 14 15 14 14 16 17 17 17 18 19 19 19 18 18 17 16 16 15 13 13 12 10 9 9 8 7 6 6 5 4 4 4 3 3 4 5 6 6 7 7 7 8 8 8 8 9 9 9 10 11 13 13 13 13 13
11 11 11 11 11 13 14 13 14 15 14 14 16 16 16 18 18 19 19 19 19 19 19 18 18 16 15 15 14 12 11 11 10 8 8 7 5 4 4 4 4 4 4 5 6 7 7 7 7 8 9 9 10 10 10 10 10 11 13 13 13 13 13
9 9 10 10 11 13 16 15 14 15 14 14 16 16 17 18 19 20 20 20 20 20 20 19 19 18 17 16 16 14 13 12 11 10 9 8 7 5 5 4 4 4 4 5 5 6 6 7 8 9 10 10 11 11 11 11 12 13 14 15 15 15 15
8 8 8 9 11 16 20 19 16 16 15 15 16 18 19 19 20 21 21 21 21 20 19 19 19 18 17 17 16 15 14 13 12 12 11 9 8 7 6 5 5 4 4 5 5 6 6 7 9 10 11 11 12 12 13 13 13 14 15 16 16 16 16
5 6 6 7 9 12 16 17 18 20 20 18 17 18 20 21 21 22 22 22 21 21 20 20 19 19 18 18 17 16 15 14 13 12 11 10 9 8 7 6 5 5 5 5 4 5 6 7 9 10 11 12 12 13 13 14 14 14 15 16 16 16 16
2 3 4 6 7 10 14 16 18 20 20 19 18 19 20 21 22 23 23 22 22 22 22 21 21 20 19 18 18 17 16 15 14 13 11 10 10 9 8 7 7 6 6 6 5 6 7 8 8 10 11 12 12 14 14 15 15 15 15 16 16 16 16
2 2 3 4 5 8 11 14 17 17 17 16 17 19 20 20 21 22 22 23 23 23 23 23 23 22 20 19 19 17 16 15 14 13 12 11 11 9 9 8 7 8 10 10 9 10 10 9 9 10 11 11 13 14 15 15 15 15 16 16 15 15 15
4 4 4 5 6 7 8 10 12 12 14 15 16 18 20 20 20 21 22 21 21 22 23 23 23 24 23 21 19 17 16 16 14 13 12 11 11 10 9 8 8 10 13 12 12 10 9 10 11 11 11 11 12 14 15 16 16 16 16 16 16 16 16
5 5 6 6 7 7 8 9 9 9 11 13 15 17 19 19 19 19 20 21 21 21 21 20 22 26 27 24 19 16 16 15 14 13 12 11 10 9 9 8 7 9 10 10 9 9 10 13 14 13 12 13 14 15 16 17 17 17 17 17 17 17 17
6 6 6 7 7 8 8 9 9 10 11 12 13 14 16 17 18 18 19 21 22 20 19 20 23 27 29 26 20 16 14 14 13 12 11 10 9 8 7 7 7 7 8 9 10 10 13 15 15 13 14 15 16 17 19 19 20 19 18 18 18 18 18
7 7 7 8 8 8 9 9 10 10 11 11 12 13 15 15 17 18 18 19 20 19 19 21 24 28 29 26 22 17 12 13 13 11 11 10 8 7 7 7 7 8 8 10 11 11 11 12 12 13 14 16 18 20 21 21 21 21 21 20 20 20 20
7 8 8 9 9 9 10 10 10 10 11 12 12 13 14 15 17 17 17 18 20 20 21 22 24 28 29 27 24 18 12 11 11 10 9 9 8 8 7 7 8 8 9 10 10 10 10 10 11 13 14 15 18 19 21 22 22 23 24 25 25 24 21
7 8 9 9 10 11 11 11 11 11 12 12 12 13 14 14 16 17 17 18 18 19 21 24 26 29 28 27 25 19 11 10 9 7 8 9 8 8 8 8 9 10 10 10 11 11 11 11 12 14 15 16 18 18 19 20 21 22 24 27 28 26 23
8 9 10 10 11 11 11 12 12 12 12 12 13 13 13 14 15 16 18 18 16 17 21 24 27 29 28 26 23 16 10 8 7 7 7 8 8 8 9 9 9 10 10 11 13 15 15 15 15 15 17 18 18 18 19 19 20 23 24 26 28 28 27
9 9 10 10 11 11 11 12 12 12 13 13 13 13 14 13 13 15 17 17 16 18 22 25 27 28 26 23 18 13 9 8 7 7 8 8 8 8 9 10 10 11 11 13 16 17 17 17 15 15 18 19 18 19 19 19 20 22 24 26 28 29 30
10 10 10 11 12 12 12 13 13 12 12 13 14 14 13 13 12 13 15 15 17 21 24 26 27 25 22 19 16 11 8 8 7 7 7 7 8 8 9 11 12 13 14 15 18 18 18 18 16 16 18 18 18 20 20 19 19 20 21 24 26 27 28
11 11 11 12 12 12 13 13 13 13 13 13 13 13 13 13 10 9 10 14 18 21 25 27 25 22 18 15 13 9 6 6 6 6 6 7 7 8 9 11 14 16 16 16 18 18 18 18 17 15 17 18 20 21 20 19 20 20 20 22 22 22 23
12 12 12 12 12 13 13 13 13 13 13 13 13 13 13 12 8 8 10 14 17 21 27 29 24 19 16 14 12 8 4 3 4 4 5 6 7 9 10 11 12 13 12 13 16 17 17 18 17 16 16 18 21 21 20 20 21 22 23 23 22 23 23
13 13 13 13 13 13 13 14 14 13 14 14 12 10 8 6 8 11 12 15 18 24 29 28 23 19 16 13 11 8 3 1 3 3 4 7 9 10 11 10 9 9 9 10 12 13 15 18 20 20 19 20 23 24 24 24 24 24 25 25 24 24 23
15 14 14 13 14 14 14 14 14 13 13 11 6 2 5 9 11 13 14 15 19 24 26 24 21 20 16 12 10 7 3 4 6 5 6 9 10 11 11 10 9 9 9 10 13 17 20 22 22 22 21 22 24 25 25 25 24 24 24 23 22 22 22
16 15 15 14 15 14 13 13 13 11 10 8 5 3 6 10 14 16 16 14 15 19 20 20 18 16 13 10 7 5 5 6 7 7 7 9 11 11 11 10 10 11 13 16 21 23 23 22 20 19 19 19 20 21 21 22 22 23 23 22 22 22 21
17 16 16 15 15 15 14 13 11 8 6 7 8 8 10 13 16 16 14 13 13 15 15 16 14 11 9 7 5 5 5 6 7 7 7 9 10 10 11 11 14 17 19 22 23 21 19 18 18 17 17 18 19 20 20 21 20 21 21 22 22 22 21
Wind_Direction
147 137 135 131 124 119 119 118 113 107 97 88 84 81 84 78 72 71 62 52 56 63 63 59 41 27 36 42 40 44 62 92 97 106 115 112 132 129 107 122 167 222 221 160 199 101 2 287 295 290 288 293 296 302 308 305 294 291 293 276 278 292 280
147 146 145 138 132 129 127 125 121 115 105 97 91 88 88 84 80 77 74 67 58 54 59 66 58 51 55 49 46 48 43 48 48 63 121 119 104 97 79 339 236 239 244 219 196 192 220 256 267 249 267 275 285 296 296 290 282 281 284 279 279 285 280
153 156 152 144 144 141 137 136 132 129 123 112 102 100 96 92 89 82 79 74 61 57 61 69 71 66 66 61 61 62 54 52 46 40 56 66 60 60 45 333 283 269 262 227 205 215 241 265 277 273 267 246 248 261 260 265 272 273 274 272 271 271 271
159 161 156 154 158 155 152 153 151 147 138 130 122 116 111 105 100 90 85 81 72 68 67 71 72 70 72 70 67 69 63 58 58 53 51 49 50 45 27 12 5 347 336 329 323 329 317 303 304 304 296 283 273 260 245 254 266 267 265 262 259 257 255
166 167 165 165 167 164 163 163 160 158 151 146 143 137 133 124 114 107 98 90 83 78 74 71 71 71 73 74 72 73 70 66 61 59 58 49 41 42 34 21 13 9 4 358 359 353 330 319 315 301 292 293 290 282 275 270 267 266 265 267 266 257 250
175 177 174 173 175 173 171 169 167 166 163 160 159 157 153 148 138 129 120 105 94 86 82 78 75 73 73 76 79 77 77 75 70 67 68 55 37 37 37 29 23 20 16 3 350 336 321 317 309 296 298 304 303 295 289 278 269 264 257 257 263 259 255
183 184 184 180 180 182 177 174 175 173 172 173 172 169 167 165 160 152 143 127 116 107 101 95 86 79 74 75 80 79 77 77 78 77 77 68 53 41 30 24 29 25 16 5 338 318 314 309 303 306 310 307 298 291 290 288 283 279 267 259 259 262 263
188 189 192 187 185 187 183 179 182 181 177 178 177 174 173 174 172 165 158 148 141 135 125 119 110 97 87 83 81 78 76 75 76 76 74 72 62 47 35 22 24 35 22 5 348 333 330 321 314 314 310 306 301 294 296 305 305 303 303 301 290 279 281
194 195 197 194 189 189 187 184 186 187 182 179 178 175 175 178 178 172 170 165 159 156 150 146 141 131 124 114 102 95 89 84 81 76 71 68 56 42 35 15 7 36 23 359 353 353 344 332 321 313 309 308 311 312 313 314 312 310 316 320 310 308 331
200 201 203 201 194 191 192 189 188 190 186 183 179 176 178 180 181 179 179 175 171 170 167 164 164 158 153 148 141 131 120 116 106 93 82 75 62 46 36 18 11 26 14 356 354 353 342 330 322 315 311 312 313 314 312 314 319 316 319 324 318 318 330
205 208 209 206 199 196 197 194 193 193 190 188 183 179 181 182 183 184 185 183 182 181 179 177 175 172 172 167 160 159 152 147 139 122 113 106 93 76 58 34 16 17 6 352 342 338 334 325 319 312 305 304 305 307 309 310 311 310 313 317 313 315 321
208 212 213 213 209 206 208 205 201 197 193 192 187 183 184 185 186 187 187 189 188 186 186 184 182 181 183 178 174 177 172 168 168 153 141 136 126 122 116 82 26 16 350 331 313 315 319 313 312 312 305 298 290 290 297 299 297 301 309 313 310 311 312
213 215 216 218 217 216 219 219 215 207 199 197 193 188 189 189 189 190 190 192 192 191 191 188 187 188 188 186 188 187 180 182 187 176 172 173 170 191 207 217 257 292 319 315 300 290 295 291 293 301 300 295 288 279 278 280 280 287 296 300 299 298 299
219 220 220 221 225 225 223 226 229 223 212 207 202 195 194 194 193 194 194 195 194 194 194 192 191 192 191 191 192 187 181 190 196 186 184 191 192 204 234 250 257 260 289 307 303 294 287 275 274 280 279 277 280 276 272 273 275 281 286 289 290 291 293
230 227 226 226 228 227 225 225 231 234 228 222 215 206 202 201 198 197 199 199 199 198 197 196 194 193 196 194 190 186 186 194 199 191 191 200 200 200 228 258 260 261 280 295 296 296 297 292 287 286 284 282 282 281 280 280 282 286 288 289 289 290 289
245 238 233 233 237 240 238 228 227 234 233 230 229 220 213 211 205 202 202 202 202 201 200 200 197 196 197 193 190 189 191 196 197 194 200 209 210 206 215 242 256 256 270 286 289 292 297 296 294 295 295 292 286 282 281 279 279 281 285 288 288 288 289
249 249 243 239 242 250 253 245 235 234 231 231 235 233 226 222 215 210 208 206 205 204 203 202 198 198 198 194 192 193 192 195 196 199 205 207 207 213 223 238 250 250 260 277 285 290 293 293 295 298 298 295 290 287 283 278 275 276 281 285 286 287 289
232 242 245 243 244 253 263 263 249 238 233 230 234 238 238 232 225 219 215 213 211 207 205 204 200 198 198 194 193 193 193 194 196 199 202 203 205 214 223 236 246 251 262 273 280 289 297 302 302 299 298 297 295 294 293 288 284 281 282 284 286 287 287
221 226 234 244 252 256 259 257 244 236 236 233 231 234 236 236 234 228 222 219 217 214 211 209 203 198 197 195 193 193 192 193 196 197 197 200 207 208 211 227 242 251 260 269 280 289 297 301 299 297 297 296 295 294 293 290 286 283 281 282 284 286 285
231 233 236 243 249 250 249 245 237 236 236 233 233 234 234 236 237 233 228 226 223 221 219 218 211 201 196 194 192 190 191 192 195 195 194 198 202 200 205 217 225 237 254 261 271 287 297 299 297 294 293 292 292 292 290 288 286 282 280 280 281 282 282
258 254 257 250 244 245 247 247 243 239 236 232 234 238 238 239 238 235 233 230 227 224 221 221 218 206 195 193 190 187 188 192 194 193 194 198 197 197 203 209 213 226 231 227 244 278 286 287 289 290 292 293 292 290 288 287 287 284 282 280 280 281 282
314 303 290 274 258 253 253 253 249 245 242 241 241 242 243 242 241 239 236 233 231 225 221 221 218 207 195 190 187 185 188 193 193 191 192 195 195 197 203 205 208 213 215 227 262 283 278 274 279 280 283 287 289 289 287 285 285 284 284 283 282 282 282
317 309 301 291 279 270 264 261 258 254 251 248 247 246 246 244 242 241 239 234 231 227 224 222 215 205 195 187 184 187 189 190 190 190 191 193 194 198 205 207 212 221 232 255 279 284 277 282 288 284 280 280 281 284 286 285 284 284 284 284 283 284 283
304 301 298 294 288 284 281 277 273 267 257 251 247 247 248 245 242 242 238 231 231 231 226 220 214 206 197 189 185 185 184 185 189 191 192 194 198 203 208 211 220 233 246 264 276 281 285 289 290 287 284 283 280 278 279 280 280 280 281 281 281 281 281
300 297 294 290 290 288 287 284 278 270 262 255 249 246 246 244 241 242 237 230 235 236 219 212 216 210 199 191 185 181 182 184 187 191 194 198 201 205 208 215 226 238 246 251 260 274 281 283 285 286 284 284 282 279 277 274 272 272 273 277 278 276 276
297 297 293 290 289 285 280 276 272 270 264 257 251 247 245 241 238 240 236 229 233 231 215 212 214 205 196 189 180 176 182 188 188 192 196 195 200 208 217 230 237 241 249 256 262 268 271 278 289 293 290 286 280 276 273 270 266 264 264 267 271 272 272
292 292 290 288 286 281 278 274 269 267 262 257 253 248 245 242 238 235 233 229 228 221 214 215 212 201 195 190 183 181 188 189 187 190 194 195 205 217 225 236 244 251 260 264 266 266 270 281 291 294 292 286 278 275 274 270 266 262 260 259 261 265 270
290 290 288 286 283 280 278 275 269 266 262 257 253 249 245 244 240 231 228 230 227 218 212 212 208 201 198 195 191 189 185 179 181 190 199 206 217 226 233 239 247 257 262 266 267 266 270 280 287 292 292 287 283 280 276 272 266 262 259 257 257 260 266
285 286 285 283 282 281 279 276 271 267 264 258 254 251 247 244 241 234 229 226 219 212 207 203 201 200 198 194 189 184 175 171 184 199 209 218 226 234 241 243 249 258 262 266 271 272 274 278 283 290 292 290 287 283 278 276 271 264 261 261 260 260 263
279 282 283 282 281 280 280 278 273 268 264 260 254 251 247 246 244 238 231 221 207 201 196 193 194 194 191 185 177 172 172 177 194 210 215 226 237 242 247 247 251 260 265 270 274 275 277 278 281 289 291 289 288 286 283 282 278 273 269 267 265 264 264
281 281 282 282 282 282 279 277 275 268 263 260 258 254 250 249 247 242 234 214 196 192 186 183 186 185 178 171 164 162 178 191 202 218 224 233 244 250 256 257 258 263 267 271 274 274 275 277 281 288 290 288 288 287 287 286 284 283 279 276 275 272 270
281 280 280 280 280 279 277 275 273 267 262 259 259 256 253 248 240 234 221 196 188 189 182 176 176 172 164 160 156 157 186 204 209 226 240 249 256 261 268 274 275 273 269 266 266 268 272 276 281 285 285 285 286 286 287 288 286 286 287 287 287 283 278
276 277 278 279 278 275 274 272 270 266 262 261 261 259 255 243 205 173 182 184 186 189 181 170 166 163 160 160 159 158 179 224 232 246 257 265 273 276 278 281 282 278 268 259 257 262 270 276 280 282 281 280 282 284 288 289 287 287 290 291 291 287 282
274 274 275 277 275 271 269 267 264 262 260 259 262 262 246 205 154 150 171 182 182 181 174 165 163 167 168 167 170 169 161 249 245 257 279 280 280 281 284 287 286 283 282 275 272 276 283 286 289 288 281 276 277 279 283 286 286 286 286 284 282 281 279
269 271 272 272 270 267 266 263 260 260 257 251 245 188 150 152 148 147 152 158 163 168 168 166 167 174 177 178 184 187 189 224 238 261 287 286 282 283 286 289 288 285 288 292 293 296 297 297 296 291 283 280 281 283 283 285 284 281 279 278 276 275 273
265 265 265 265 264 262 259 258 257 253 243 227 208 174 163 163 159 149 139 135 144 157 168 173 174 178 184 189 202 218 225 241 257 272 281 282 285 288 288 288 284 281 285 292 295 298 301 301 298 294 290 289 292 292 289 284 280 277 274 272 271 270 269
263 263 263 263 261 257 254 256 255 245 222 209 206 200 180 161 152 147 140 133 136 149 165 174 178 185 192 197 220 243 253 273 287 292 290 287 287 288 289 290 286 286 292 298 301 305 308 308 304 300 299 298 297 293 288 283 279 276 273 270 268 268 267
Height
804 806 808 809 810 811 812 812 813 813 813 813 813 813 813 813 813 813 813 813 813 813 813 813 814 814 814 815 815 815 815 815 815 816 816 817 818 818 818 818 819 819 820 820 821 822 825 824 820 818 816 815 815 816 817 817 817 816 817 818 819 818 817
805 807 808 809 811 811 812 813 813 814 814 814 814 814 814 814 814 814 814 814 814 814 814 814 815 815 816 816 817 816 816 816 816 816 816 817 818 818 818 818 818 818 818 819 820 820 823 824 822 819 817 816 817 817 816 817 817 816 816 816 816 816 816
805 806 808 809 811 812 812 813 814 814 815 815 815 815 815 816 816 816 816 816 816 815 815 816 816 817 817 817 818 818 818 817 817 817 817 817 818 818 818 818 818 818 818 818 819 819 819 820 819 817 816 816 817 817 817 818 818 817 816 816 816 816 815
804 806 807 809 810 811 812 813 814 814 815 815 816 816 816 817 817 817 817 817 817 817 817 817 817 818 818 818 818 819 819 819 819 819 819 819 819 819 819 819 819 819 819 819 819 819 819 818 817 816 816 815 815 815 816 817 817 817 816 815 815 814 814
804 805 807 808 809 810 811 812 813 814 815 816 816 817 817 817 817 818 818 818 818 818 818 818 818 818 819 819 819 819 820 820 820 820 820 820 820 821 821 821 821 821 821 821 821 821 821 820 820 819 817 816 815 814 815 815 815 815 814 814 813 812 811
803 804 806 807 808 809 810 811 812 813 814 815 816 817 817 818 818 818 819 819 819 819 819 819 819 819 820 820 820 820 820 820 821 821 821 821 821 821 822 822 822 822 822 823 823 823 823 822 822 820 818 817 816 815 814 813 812 812 811 811 810 809 809
802 803 804 806 807 808 809 810 811 812 813 815 816 817 817 818 818 819 819 819 820 820 820 820 820 820 821 821 821 821 821 821 821 822 822 822 822 822 823 823 823 823 823 824 824 824 824 823 823 822 821 819 818 816 814 812 810 809 808 807 807 807 807
801 802 803 804 805 807 807 809 810 811 812 813 815 816 817 818 819 819 819 820 820 820 820 821 821 821 821 822 822 822 822 823 823 823 823 823 823 823 823 823 823 824 824 824 824 824 824 824 824 823 823 821 819 816 813 811 810 808 807 807 806 806 806
800 801 802 803 804 805 806 807 809 810 811 812 814 815 816 817 818 819 820 820 820 820 821 821 821 822 822 822 822 823 823 823 823 824 824 824 824 824 824 824 824 824 824 824 824 824 824 824 824 824 823 822 820 817 814 812 810 809 808 807 806 806 806
799 800 801 802 803 805 806 806 808 809 810 811 812 814 815 816 818 818 819 820 820 820 821 821 821 822 822 822 823 823 823 823 824 824 824 824 825 825 825 825 824 825 825 824 824 824 824 824 824 824 823 823 822 820 817 815 812 810 809 808 808 807 807
798 799 800 801 803 804 805 805 806 807 808 810 811 812 814 815 816 817 818 819 819 820 820 821 821 822 822 823 823 823 824 824 824 824 824 825 825 825 825 825 825 825 825 825 825 824 824 824 824 824 823 823 823 822 821 818 815 813 811 811 810 809 808
797 798 799 801 802 803 805 805 805 806 807 808 809 811 812 813 814 815 817 818 818 819 820 820 821 821 822 823 823 824 824 824 825 825 825 825 825 825 825 825 825 825 825 825 825 825 824 824 824 823 823 823 823 823 822 821 818 815 814 813 812 811 811
795 797 798 800 801 802 804 805 806 806 806 807 807 808 810 811 812 813 815 816 817 818 819 819 820 821 822 822 823 823 824 824 825 825 825 825 826 826 826 826 826 825 826 825 825 825 824 824 824 823 823 822 822 822 822 822 820 817 815 815 814 813 812
795 795 796 798 799 801 803 804 806 806 806 807 807 807 808 809 810 811 812 813 814 816 817 818 819 820 820 821 822 823 823 824 825 825 825 825 826 826 826 826 826 826 826 825 825 824 823 823 823 822 822 822 821 821 821 821 819 817 816 815 814 813 812
794 795 795 796 797 799 801 803 805 806 806 807 807 807 807 807 808 809 810 811 812 813 814 815 817 818 819 820 820 821 822 823 824 824 825 825 825 826 826 826 826 826 826 825 825 824 823 823 822 821 821 821 820 820 820 820 818 816 815 814 814 813 812
794 794 794 795 796 798 800 801 802 804 805 806 807 806 806 807 807 807 808 809 809 811 812 813 814 815 816 818 818 820 821 821 822 823 824 824 825 825 825 825 825 825 825 825 825 824 823 823 822 821 820 820 820 819 819 819 818 817 815 813 813 812 810
793 793 793 793 795 797 800 800 801 801 802 804 805 806 806 806 806 806 806 807 807 808 809 810 812 813 814 815 816 818 819 820 821 822 822 823 823 824 824 825 825 825 825 825 824 824 823 823 822 821 820 820 819 818 818 818 817 816 814 812 811 810 809
791 792 792 792 792 795 797 799 800 800 800 801 802 803 804 805 805 804 804 805 805 806 807 808 809 810 811 813 814 815 817 818 819 820 820 821 822 822 823 824 824 824 824 824 824 823 823 823 822 822 821 820 818 817 817 816 815 815 813 811 810 809 808
789 790 790 790 790 791 793 796 798 799 798 798 798 799 801 802 802 802 802 803 803 804 805 806 807 808 809 810 812 813 814 815 817 818 818 820 820 821 821 822 823 823 823 823 823 823 823 822 822 822 821 820 819 817 816 815 814 813 812 810 808 807 806
788 787 787 787 788 789 791 793 794 795 796 795 795 796 797 798 799 800 800 800 801 802 803 804 805 806 806 808 809 811 812 814 815 816 817 817 818 819 820 820 821 822 822 822 822 822 822 822 821 821 820 819 818 817 816 815 813 812 811 809 807 806 804
787 786 786 786 787 788 789 791 791 792 792 792 792 792 793 794 795 796 797 797 798 799 800 801 803 804 804 805 807 808 810 811 812 814 815 816 817 817 818 818 819 820 821 821 821 821 821 821 820 820 820 819 818 817 815 814 812 811 809 807 806 804 802
785 785 785 785 786 786 787 789 790 790 789 788 789 790 790 791 792 793 794 795 795 796 797 798 800 802 802 802 804 806 807 809 810 812 813 814 815 816 816 816 817 818 818 818 819 820 819 819 819 818 818 818 817 817 815 813 811 810 808 806 804 803 801
785 785 784 785 785 786 786 787 787 787 786 786 787 787 788 789 789 790 791 792 793 794 794 795 797 799 799 799 802 803 805 807 809 810 811 812 813 814 814 815 815 815 816 817 817 817 817 817 817 816 816 816 816 816 814 813 811 809 807 805 803 802 800
784 784 784 784 784 784 784 784 784 784 784 784 785 786 786 787 788 788 789 790 791 791 792 794 796 798 797 797 800 802 803 805 807 808 810 811 812 812 813 813 813 813 814 814 815 814 814 814 814 814 813 813 814 814 813 813 811 809 807 805 803 801 799
783 783 783 783 783 783 783 783 783 783 783 783 784 784 784 785 786 786 787 787 788 788 790 792 795 796 796 796 799 801 802 804 805 807 808 809 810 811 811 812 812 812 812 812 813 813 812 812 811 811 811 810 810 811 811 810 809 808 806 804 802 800 798
782 783 783 783 783 782 782 782 782 782 782 782 782 782 782 783 783 784 785 785 786 787 788 790 793 794 795 796 798 799 801 803 804 805 807 807 808 809 809 810 810 810 811 810 811 811 810 810 809 808 808 807 807 806 806 806 806 805 804 803 800 798 797
781 782 782 782 782 781 781 781 781 781 781 781 781 780 781 781 781 782 782 783 785 786 787 788 791 793 794 795 797 798 801 802 803 804 805 806 807 807 807 808 808 809 809 809 809 809 809 809 808 807 807 806 804 803 802 801 801 801 800 800 798 796 796
781 781 781 781 781 780 780 779 780 780 779 779 779 778 778 778 779 780 780 781 783 784 784 786 789 792 794 795 796 798 800 801 802 803 804 805 805 806 806 806 807 807 807 807 807 806 807 807 806 806 805 804 803 802 800 799 798 797 797 796 794 793 793
780 780 780 780 779 779 778 778 778 778 777 777 777 776 776 776 777 777 778 779 781 781 782 785 787 790 793 794 796 798 799 800 801 802 803 804 804 804 804 805 805 805 805 805 804 804 804 805 804 804 803 801 800 799 798 797 796 795 794 793 792 791 790
778 778 778 778 777 777 777 777 776 776 776 775 775 774 774 774 775 775 776 777 778 778 780 784 786 789 792 793 795 797 798 799 801 801 802 802 803 803 803 803 803 803 803 803 802 801 802 802 802 801 800 799 798 796 795 794 793 792 791 790 788 787 786
776 776 776 776 776 775 775 775 775 774 774 773 773 773 773 773 773 774 775 776 776 776 779 783 787 789 792 793 795 797 798 799 799 800 800 801 801 801 801 801 801 801 802 801 800 799 799 799 799 799 798 796 795 794 792 792 790 789 788 786 784 783 782
774 774 774 774 773 773 773 773 772 772 772 771 771 771 771 772 773 773 774 775 774 775 779 784 787 790 792 793 795 796 797 798 798 799 799 799 799 799 799 799 799 798 799 799 798 796 796 796 796 796 796 795 793 791 790 789 788 786 785 783 782 780 779
771 771 771 771 771 771 771 770 770 770 770 770 769 770 770 771 772 773 773 774 775 776 779 784 788 790 792 794 795 795 796 797 797 798 798 798 798 798 798 798 796 795 795 796 795 794 794 793 794 794 793 792 790 789 788 787 785 784 783 781 780 779 777
769 769 769 769 768 769 768 768 768 768 768 768 768 769 769 770 772 772 773 775 777 778 781 784 787 790 791 793 794 795 796 796 797 797 797 797 798 797 796 796 794 792 793 793 793 792 792 791 791 790 790 789 788 786 785 784 783 782 781 779 778 776 775
767 767 767 766 766 766 766 766 766 766 766 767 768 769 769 770 772 773 775 777 779 781 783 785 787 789 791 792 793 794 795 796 796 797 797 796 796 795 794 794 792 790 791 791 791 790 790 789 788 787 786 785 784 783 783 782 781 780 779 777 776 774 772
764 764 764 764 764 763 763 764 764 764 765 766 768 770 770 771 772 774 777 779 781 782 784 786 788 789 790 792 793 793 794 794 795 795 795 795 794 793 793 793 791 789 789 789 788 788 787 786 785 784 783 782 781 780 780 779 778 777 775 774 773 771 769
761 761 761 761 761 760 761 761 762 763 765 766 768 770 771 772 773 775 778 780 781 783 785 787 789 790 790 791 792 792 793 793 793 793 793 793 792 792 791 790 789 788 787 787 786 785 784 783 782 781 780 779 778 778 777 776 775 774 772 771 770 768 767